OBJECT D (43830 NORAD) Tracking and Keplerian Element Data

This shows tracking and keplerian element data for the satellite.

Feedback or suggestion? Click here.




ElementValue
Catalog43830
NameOBJECT D
Epoch Orbit3
Epoch Day339.96291079
Epoch Year2018
RAAN243.0709
Inclination51.624
Eccentricity0.0113992
Argument of Perigee47.0806
Mean Anonmoly47.4344
Mean Motion15.98333502
Decay Rate0.03218791
L11 43830U 18101D 18339.96291079 .03218791 11485-4 31785-2 0 9996
L22 43830 51.6240 243.0709 0113992 47.0806 47.4344 15.98333502 31

Live tracking and technical data element details for OBJECT D (NORAD 43830). OBJECT D can be tracked NOW for your location showing map with azimuth and elevation plus other details from your city location.

Track the satellite on the map from your city or location and see movement details for azimuth, elevation, latitude, longitude, range, height, and movement on the map or in text.







IsCatalogInMostPopularTable: catalog: 43830, numindb: 1
Update: records affected: 1



GetName: 43830 OBJECT D

Hit Count: updated at: Tue, 11 Dec 2018 03:08:19 GMT